Home > Time Zones > World Clock > Weather > U.S.A. > Erie > Past weeks

Flag for U.S.A. Weather past 2 weeks in Erie, Pennsylvania, U.S.A.

Now
12 °F

Overcast.


Feels Like: -1 °F
Forecast: 4 / 27 °F
Wind: 9 mph from Southwest

Location: Erie International Airport

Current Time: Jan 31, 2015 at 9:01:40 AM

Latest Report: Jan 31, 2015 at 7:51 AM


Visibility: 10 mi

Pressure: 30.38 "Hg

Humidity: 64%

Dew point: 2 °F

Location of ErieLocation

Historic Weather in Erie — Graph

°F

Erie temperature yesterday

Maximum temperature yesterday: 30 °F (at 12:51 AM)
Minimum temperature yesterday: 14 °F (at 5:51 PM)
Average temperature yesterday: 20 °F

Past Weeks' High & Low Weather Summary

 TemperatureHumidityPressure
High47 °F (Jan 17, 9:51 PM)93% (Jan 29, 9:51 PM)30.45 "Hg (Jan 29, 9:51 PM)
Low2 °F (Jan 28, 3:51 AM)30% (Jan 29, 6:51 AM)29.56 "Hg (Jan 24, 2:51 PM)
Average24 °F74%30.04 "Hg
* Reported Jan 16 6:03 AM — Jan 31 6:51 AM, Erie, Weather by CustomWeather, © 2014

Note: Actual official high and low records may vary slightly from our data, if they occured in-between our weather recording intervals... More about our weather records

Advertising

Erie weather history for previous 24 hours

 ConditionsComfort  
Time TempWeatherWind HumidityBarometerVisibility
6:51 AM
Jan 31
11 °FOvercast.7 mph67%30.38 "Hg10 mi
5:51 AM10 °FOvercast.7 mph73%30.39 "Hg10 mi
4:51 AM10 °FOvercast.8 mph76%30.39 "Hg10 mi
3:51 AM8 °FClear.6 mph79%30.39 "Hg10 mi
2:51 AM10 °FClear.5 mph80%30.41 "Hg10 mi
1:51 AM15 °FOvercast.5 mph70%30.42 "Hg10 mi
12:51 AM15 °FOvercast.6 mph70%30.42 "Hg10 mi
11:51 PM
Jan 30
15 °FOvercast.10 mph74%30.43 "Hg10 mi
11:00 PM15 °FLight snow. Mostly cloudy.8 mph80%30.39 "Hg2 mi
9:51 PM16 °FOvercast.9 mph65%30.44 "Hg10 mi
8:51 PM15 °FOvercast.10 mph67%30.43 "Hg10 mi
7:51 PM15 °FOvercast.12 mph64%30.43 "Hg10 mi
6:51 PM15 °FOvercast.8 mph67%30.43 "Hg10 mi
5:51 PM14 °FPassing clouds.10 mph71%30.42 "Hg10 mi
4:51 PM15 °FOvercast.9 mph64%30.41 "Hg10 mi
3:51 PM15 °FPartly sunny.13 mph61%30.39 "Hg10 mi
2:51 PM16 °FMostly cloudy.9 mph65%30.37 "Hg8 mi
1:51 PM16 °FOvercast.10 mph65%30.34 "Hg9 mi
12:51 PM17 °FOvercast.12 mph64%30.33 "Hg10 mi
11:51 AM16 °FLight snow. Mostly cloudy.10 mph67%30.32 "Hg5 mi
10:51 AM16 °FLight snow. More clouds than sun.15 mph67%30.30 "Hg9 mi
9:51 AM17 °FLight snow. Overcast.13 mph70%30.27 "Hg3 mi
9:00 AM19 °FLight snow. Overcast.14 mph74%30.20 "Hg2 mi
Weather by CustomWeather, © 2014

See weather overviewHow to use our weather pages